Вернуться в каталог

MAKERSAT 0

АктивенНаукаSSO
NORAD 43016·PAYLOAD·🇺🇸 United States

Запущен Nov 18, 2017 с Vandenberg Space Force Base

Loading…

Ближайшие Пролёты (ближайшие 24 часа)

TLE

СвежийSource: Space-Track

Эпоха: Sep 13, 2026, 15:40 UTC

1 43016U 17073D   26256.65322917  .00019750  00000-0  49107-3 0  9994
2 43016  97.4458 139.9838 0098020 318.4422  40.9398 15.35421066480027

Отслеживайте MAKERSAT 0 в реальном времени с AllMySat

Download on the App Store